Location: Green River State Wildlife Area
(41.6390°N, 89.5080°W)
Time: 12:26:17
(UTC-05:00)

Daily predictions for brighter satellites

Satellite Brightness Start Highest point End
(mag) Time Altitude Azimuth Time Altitude Azimuth Time Altitude Azimuth
Cosmos 2366 rocket 4.0 18:29:55 10° S 18:36:08 83° E 18:42:20 10° N
RESURS DK-1 2.3 18:32:02 10° NNW 18:36:12 78° ENE 18:40:19 10° SSE
Cosmos 1908 3.9 18:32:53 10° SSE 18:36:24 33° E 18:39:55 10° NNE
Cosmos 2237 4.4 18:31:45 10° NNW 18:37:24 54° ENE 18:42:57 10° SE
COSMO-SKYMED 1 3.1 18:33:26 10° NNE 18:37:30 37° E 18:41:31 10° SSE
Cosmos 1626 2.1 18:34:22 10° N 18:38:08 85° E 18:41:52 10° S
Cosmos 2237 Rocket 3.8 18:38:20 10° N 18:41:45 16° NE 18:45:09 10° E
Ariane Rocket 3.8 18:37:01 10° S 18:42:01 57° W 18:47:04 10° NNW
Atlas Centaur 2 3.8 18:39:25 10° SW 18:42:12 17° S 18:45:19 10° SE
Gbstr 26 Del rocket 3.9 18:40:01 10° NW 18:44:40 47° NNE 18:50:24 10° E
Cosmos 2151 2.9 18:44:34 10° N 18:48:53 83° E 18:53:06 10° S
Cosmos 2227 Rocket 3.8 18:48:09 10° ESE 18:50:26 13° E 18:52:07 11° ENE
CZ-2C R/B 4.0 18:48:41 10° N 18:53:11 69° WNW 18:57:35 10° SSW
Cosmos 2058 3.0 18:51:35 10° N 18:55:46 83° W 18:59:54 10° S
Cosmos 1400 Rocket 3.7 18:53:40 10° NNW 18:57:37 54° W 19:01:28 10° S
YAOGAN 1 2.8 18:55:12 10° S 18:59:31 77° WSW 19:03:52 10° NNW
ALOS 2.5 18:58:24 10° SE 19:02:51 46° ENE 19:07:19 10° N
Cosmos 1300 3.9 19:00:24 10° SE 19:03:17 21° E 19:06:12 10° NE
Cosmos 2360 Rocket 2.7 18:57:48 10° NNW 19:03:24 64° WSW 19:08:59 10° S
Cosmos 1633 Rocket 4.3 19:00:22 10° NNE 19:03:42 20° ENE 19:06:13 13° ESE
Cosmos 1269 Rocket 4.2 18:59:04 10° S 19:04:07 49° ESE 19:09:13 10° NNE
GRACE-2 3.5 19:01:42 10° S 19:04:15 74° E 19:06:49 10° N
SKYMED 3 4.5 19:03:15 10° NNE 19:07:38 83° ESE 19:11:58 10° S
GRACE-1 3.6 19:06:29 10° S 19:09:03 84° W 19:11:39 10° N
MOS 1 4.3 19:04:11 10° SSE 19:09:51 87° WSW 19:15:35 10° NNW
Cosmos 1821 Rocket 4.1 19:06:14 10° SSE 19:12:11 52° E 19:18:13 10° NNE
Cosmos 1934 Rocket 4.4 19:06:28 10° SSE 19:12:18 40° E 19:18:09 10° NNE
Aureole 2 Rocket 3.2 19:09:33 10° N 19:13:15 38° ENE 19:16:42 12° SE
SPOT 3 Rocket 3.5 19:08:17 10° SSE 19:13:28 84° ENE 19:18:43 10° NNW
COSMOS 2428 2.6 19:08:24 10° NNW 19:14:06 71° ENE 19:19:46 10° SSE
Abrixas 1.5 19:12:50 10° SW 19:14:57 64° SSE 19:15:20 49° E
Cosmos 2333 Rocket 2.7 19:11:35 10° N 19:17:00 40° ENE 19:21:36 14° SE
Cosmos 1452 Rocket 4.2 19:11:56 10° NNW 19:17:05 57° WSW 19:22:12 10° S
Cosmos 2239 Rocket 4.5 19:12:10 10° S 19:18:08 58° E 19:24:11 10° NNE
Cosmos 2219 3.2 19:13:32 10° S 19:19:12 65° ESE 19:24:54 10° NNE
CZ-4 R/B 3.6 19:16:25 10° SSW 19:20:07 30° W 19:23:47 10° NW
FENGYUN 3A 3.6 19:15:16 10° SSE 19:20:36 69° ENE 19:26:00 10° N
BREEZE-M DEB (TANK) 4.4 18:59:03 10° WNW 19:22:30 63° N 19:26:19 23° E
Delta 2 Rocket 4.4 19:21:12 10° WSW 19:24:36 29° S 19:26:27 19° SE
Cosmos 2221 2.6 19:20:50 10° S 19:25:09 79° W 19:29:32 10° N
BREEZE-M R/B 3.5 19:23:01 10° S 19:25:04 24° SE 19:25:04 24° SE
SKYMED 2 4.1 19:21:19 10° N 19:25:37 63° WNW 19:29:54 10° SSW
Iridium 4 Rocket 3.7 19:20:03 10° S 19:25:37 77° E 19:31:32 10° N
Cosmos 2297 Rocket 3.3 19:23:17 10° SSE 19:27:02 22° ESE 19:27:02 22° ESE
Cosmos 2098 Rocket 3.4 19:24:04 10° S 19:28:37 75° E 19:34:32 10° N
Cosmos 2084 3.7 19:27:19 10° NNW 19:30:55 39° NE 19:31:39 35° ENE
Cosmos 921 Rocket 4.4 19:26:43 10° NNW 19:30:55 42° WSW 19:35:01 10° S
Cosmos 44 3.4 19:28:32 10° SW 19:32:51 64° NW 19:37:04 11° NNE
Cosmos 1110 Rocket 4.3 19:28:46 10° N 19:33:51 44° ENE 19:36:35 24° ESE
Abrixas rocket 3.6 19:32:22 10° NW 19:35:12 26° N 19:35:42 25° NNE
Meteor 2-10 4.0 19:31:05 10° S 19:35:57 53° E 19:40:56 10° NNE
BREEZE-M DEB (TANK) 3.6 19:28:13 10° W 19:39:00 58° N 19:41:01 30° ENE
BREEZE-M DEB (TANK) 4.3 19:34:52 10° WNW 19:39:37 87° SSW 20:01:18 10° SE
Cosmos 1726 2.1 19:37:10 10° S 19:40:51 81° W 19:44:33 10° N
Cosmos 2123 Rocket 4.0 19:36:15 10° N 19:42:25 59° E 19:48:35 10° SSE
FengYun 1-2 T 4.1 19:38:06 10° SSE 19:43:32 64° ENE 19:48:58 10° N
Cosmos 1605 Rocket 4.0 19:40:48 10° SSE 19:46:37 49° E 19:52:27 10° NNE
BREEZE-M DEB (TANK) 3.9 19:49:06 10° WNW 19:50:17 19° NNW 19:50:17 19° NNW
Cosmos 2219 Rocket 2.1 19:45:08 10° NNW 19:50:47 86° ENE 19:55:32 15° SSE
FREGAT/IRIS 3.8 19:56:22 36° NNW 19:56:22 36° NNW 19:58:18 10° NNW
Cosmos 2251 Rocket 4.0 19:52:31 10° S 19:56:38 40° SE 19:56:38 40° SE
Envisat 4.1 20:01:49 28° NNE 20:01:49 28° NNE 20:04:49 10° N
SJ-6B 3.1 20:06:28 52° N 20:06:28 52° N 20:09:22 10° NNW
NOSS 0 Rocket 3.8 20:02:15 10° NNW 20:08:26 88° ENE 20:11:40 30° SSE
Resurs 01 Rocket 3.3 20:11:19 21° NNE 20:11:19 21° NNE 20:12:58 10° N
Lacrosse 5 rocket 4.0 20:08:46 10° N 20:09:26 10° N 20:09:34 10° N
CZ-4C R/B 2.8 20:05:08 10° SW 20:10:15 52° NW 20:15:06 15° NNE
MOS 1-B Rocket 3.8 20:09:36 48° ESE 20:10:58 62° ENE 20:17:04 10° N
Sich 1 3.6 20:08:38 10° NNW 20:12:56 57° W 20:17:15 10° S
Thor Agena Rocket 3.9 20:09:24 10° N 20:14:26 61° WNW 20:19:24 10° SSW
Cosmos 1447 Rocket 4.4 20:14:16 10° N 20:20:35 64° E 20:21:16 60° ESE
H-2A R/B 3.8 20:19:07 29° SSW 20:20:38 45° W 20:24:26 10° NNW
BREEZE M DEB (TANK) 4.0 20:06:43 10° WNW 20:22:16 71° NNE 20:23:10 60° ENE
In-Cosmos 22 Rocket 4.5 20:18:59 10° NNW 20:24:43 70° W 20:30:28 10° S
Cosmos 2237 Rocket 2.1 20:20:54 10° NNW 20:26:38 90° NE 20:27:17 72° SSE
Cosmos 1331 Rocket 4.1 20:23:04 10° NNW 20:28:17 71° WSW 20:29:11 57° SSW
Gbstr 26 Del rocket 4.4 20:26:41 10° WNW 20:31:49 50° SW 20:33:16 42° S
USA 267 3.3 20:32:24 55° SSE 20:32:24 55° SSE 20:38:19 10° SSW
Cosmos 2227 Rocket 2.1 20:27:58 10° SSW 20:33:38 86° WNW 20:34:03 77° N
SL-16 R/B 3.2 20:33:12 10° NNW 20:36:40 34° N 20:36:40 34° N
Cosmos 1980 4.2 20:45:13 10° NNW 20:50:43 53° WSW 20:51:11 52° SW
Meteor 2-3 Rocket 4.1 20:45:25 10° NNW 20:50:10 60° NNW 20:50:10 60° NNW
CZ-3A R/B 3.9 20:38:07 10° NW 20:55:45 63° NNE 20:56:32 60° NE
Cosmos 2333 Rocket 3.9 20:56:09 10° NW 21:01:06 30° WSW 21:03:41 21° SW
Centaur D AC-28 4.4 21:00:42 10° SW 21:42:07 - E 21:03:27 27° S
USA 234 4.2 21:08:10 37° N 21:08:10 37° N 21:13:04 10° NW
Cosmos 2297 Rocket 3.5 21:05:38 10° SW 21:08:59 34° WSW 21:08:59 34° WSW
